Location: Brad
(46.1333°N, 22.7833°E)
Time: 20:24:49
(UTC+00:00)

Cosmos 1892 - Pass Details

Date: 03 February 2023
Orbit: 487 x 506 km, 82.5° (Epoch: 22 March)

Event Time Altitude Azimuth Distance (km) Brightness Sun altitude
Rises 16:30:20 0° 181° (S) 2,568 6.4 -9.7°
Reaches altitude 10° 16:32:26 10° 178° (S) 1,695 5.5 -10.1°
Maximum altitude 16:36:07 66° 96° (E) 550 2.6 -10.7°
Drops below altitude 10° 16:39:52 10° 14° (NNE) 1,726 5.1 -11.3°
Sets 16:42:01 0° 12° (NNE) 2,620 6.0 -11.7°
